Home > Weather > Piraeus > Past weeks

Flag for Greece Past Weather in Piraeus, Greece — Yesterday and Last 2 Weeks

Now
63 °F

Passing clouds.


Feels Like: 63 °F
Forecast: 65 / 82 °F
Wind: No wind

Location: Elefsis Airport

Current Time: May 26, 2016 at 3:51:02 AM

Latest Report: May 26, 2016 at 3:20 AM


Visibility: N/A

Pressure: 29.80 "Hg

Humidity: 64%

Dew Point: 50 °F

Location of PiraeusLocation

Past Weather in Piraeus — Graph

°F

Piraeus Temperature Yesterday

Maximum temperature yesterday: 81 °F (at 2:20 PM)
Minimum temperature yesterday: 64 °F (at 3:20 AM)
Average temperature yesterday: 72 °F

High & Low Weather Summary for the Past Weeks

 TemperatureHumidityPressure
High88 °F (May 13, 2:20 PM)94% (May 21, 7:20 PM)30.04 "Hg (May 21, 7:20 PM)
Low54 °F (May 23, 3:50 AM)15% (May 24, 11:50 PM)29.62 "Hg (May 13, 2:50 AM)
Average70 °F49%29.86 "Hg
* Reported May 11 1:50 AM — May 26 1:20 AM, Piraeus, Weather by CustomWeather, © 2016

Note: Actual official high and low records may vary slightly from our data, if they occured in-between our weather recording intervals... More about our weather records

Advertising

Piraeus Weather History for the Previous 24 Hours

Scroll right to see more
 ConditionsComfort  
Time TempWeatherWind HumidityBarometerVisibility
1:20 AM
Thu, May 26
66 °FPassing clouds.12 mph56%29.80 "HgN/A
12:50 AM66 °FPassing clouds.9 mph56%29.80 "HgN/A
12:20 AM66 °FPassing clouds.8 mph56%29.77 "HgN/A
11:50 PM
Wed, May 25
66 °FPassing clouds.8 mph56%29.77 "HgN/A
11:22 PM70 °FPassing clouds.7 mph46%29.77 "HgN/A
10:50 PM70 °FPassing clouds.7 mph46%29.77 "HgN/A
10:20 PM68 °FPassing clouds.9 mph49%29.77 "HgN/A
8:50 PM72 °FPassing clouds.7 mph41%29.74 "HgN/A
8:20 PM73 °FPassing clouds.9 mph38%29.74 "HgN/A
7:50 PM75 °FPassing clouds.14 mph31%29.71 "HgN/A
7:20 PM77 °FPassing clouds.12 mph30%29.71 "HgN/A
6:50 PM79 °FPassing clouds.12 mph26%29.71 "HgN/A
6:20 PM79 °FPassing clouds.14 mph26%29.71 "HgN/A
5:50 PM81 °FPassing clouds.12 mph24%29.71 "HgN/A
5:20 PM81 °FPassing clouds.12 mph24%29.71 "HgN/A
4:50 PM81 °FPassing clouds.14 mph23%29.74 "HgN/A
4:20 PM81 °FScattered clouds.12 mph23%29.74 "HgN/A
3:50 PM81 °FScattered clouds.14 mph23%29.74 "HgN/A
3:20 PM79 °FScattered clouds.12 mph24%29.74 "HgN/A
2:50 PM79 °FScattered clouds.12 mph24%29.74 "HgN/A
2:20 PM81 °FScattered clouds.12 mph23%29.74 "HgN/A
1:50 PM79 °FScattered clouds.12 mph24%29.77 "HgN/A
1:20 PM79 °FPassing clouds.12 mph24%29.77 "HgN/A
12:50 PM77 °FPassing clouds.14 mph26%29.77 "HgN/A
12:20 PM75 °FPassing clouds.12 mph29%29.77 "HgN/A
11:50 AM75 °FPassing clouds.12 mph29%29.77 "HgN/A
11:20 AM77 °FPassing clouds.12 mph26%29.77 "HgN/A
10:50 AM75 °FPassing clouds.9 mph27%29.77 "HgN/A
10:20 AM73 °FPassing clouds.9 mph29%29.77 "HgN/A
9:50 AM73 °FPassing clouds.12 mph31%29.77 "HgN/A
9:20 AM72 °FSunny.12 mph33%29.80 "Hg10 mi
8:50 AM70 °FSunny.12 mph40%29.80 "Hg10 mi
8:20 AM70 °FSunny.10 mph40%29.80 "Hg10 mi
7:50 AM68 °FSunny.7 mph43%29.80 "Hg10 mi
7:20 AM66 °FSunny.6 mph43%29.77 "Hg10 mi
6:50 AM64 °FClear.9 mph46%29.77 "Hg10 mi
6:20 AM64 °FClear.14 mph49%29.77 "Hg10 mi
5:50 AM64 °FClear.9 mph49%29.77 "Hg10 mi
5:20 AM64 °FClear.9 mph49%29.77 "Hg10 mi
4:50 AM64 °FClear.9 mph46%29.77 "Hg10 mi
4:20 AM64 °FClear.7 mph43%29.77 "Hg10 mi
3:50 AM64 °FClear.7 mph43%29.77 "Hg10 mi
3:20 AM64 °FClear.12 mph43%29.77 "Hg10 mi
Weather by CustomWeather, © 2016

See weather overviewHow to use our weather pages